"startDT [UTC]","vpos","CH4 [ppm]","stdev(CH4) [ppm]","CO2 [ppm]","stdev(CO2) [ppm]","H2O [ppm]","stdev(H2O)","p_LGR [torr]","T_LGR [C]","mt1_LGR [us]","mt2_LGR [us]","T_ECpre [C]","T_EC1 [C]","T_EC2 [C]","p_inlet [hPa]","p_in [hPa]","p_out [hPa]","T_inlet [C]","RH_inlet [%]","dwpt_inlet [C]","T_vent [C]","RH_vent [%]","dwpt_vent [C]","flow_vent [l min-1]","flow_inlet [l min-1]","dwpt_sample [C]","T_room [C]"
2012-04-09 00:00:00,0.0,1.9053,0.0010,401.45,0.21,170.3,34.6,138.11,28.23,24.61,36.33,0.04,-272.73,-272.73,-50,553,-923,22.8,4.0,-21.4,22.9,4.1,-20.9,5.73,2.42,-25.5,27.9
2012-04-09 00:01:00,0.0,1.9053,0.0009,401.40,0.23,176.4,44.5,138.11,28.24,24.62,36.34,0.04,-272.74,-272.73,-50,553,-922,22.8,4.0,-21.3,22.9,4.1,-20.9,5.73,2.31,-25.4,28.0
2012-04-09 00:02:00,0.0,1.9053,0.0011,401.41,0.26,182.5,40.5,138.10,28.25,24.61,36.33,0.04,-272.74,-272.74,-50,553,-923,22.8,4.0,-21.3,23.0,4.1,-20.9,5.73,2.31,-25.4,28.0
2012-04-09 00:03:00,0.0,1.9051,0.0009,401.45,0.22,182.5,38.5,138.10,28.26,24.61,36.33,0.04,-272.74,-272.73,-50,553,-923,22.9,4.0,-21.4,23.0,4.1,-20.9,5.73,2.42,-25.4,28.1
2012-04-09 00:04:00,0.0,1.9046,0.0011,401.41,0.20,184.1,35.1,138.10,28.28,24.61,36.33,0.04,-272.74,-272.73,-50,553,-923,22.9,4.0,-21.3,23.0,4.1,-20.8,5.73,2.37,-25.3,27.7
2012-04-09 00:05:00,0.0,1.9042,0.0009,401.40,0.23,165.9,41.2,138.11,28.28,24.62,36.33,0.04,-272.74,-272.74,-50,554,-923,22.9,4.0,-21.2,23.0,4.2,-20.8,5.73,2.33,-25.4,27.2
2012-04-09 00:06:00,0.0,1.9050,0.0009,401.47,0.23,161.2,33.7,138.11,28.28,24.61,36.32,0.04,-272.73,-272.74,-50,554,-923,22.9,4.1,-21.2,22.9,4.2,-20.8,5.73,2.33,-25.6,26.7
2012-04-09 00:07:00,0.0,1.9043,0.0010,401.39,0.24,137.1,44.0,138.12,28.28,24.61,36.32,0.04,-272.74,-272.74,-51,554,-923,22.8,4.0,-21.3,22.9,4.2,-20.9,5.73,2.47,-25.8,26.5
2012-04-09 00:08:00,0.0,1.9026,0.0011,401.31,0.23,122.4,39.7,138.13,28.26,24.61,36.33,0.04,-272.73,-272.73,-51,554,-923,22.8,4.0,-21.3,22.8,4.2,-20.9,5.73,2.39,-25.9,26.3
2012-04-09 00:09:00,0.0,1.9017,0.0011,401.31,0.24,105.5,36.7,138.13,28.25,24.61,36.32,0.04,-272.73,-272.74,-51,554,-923,22.7,4.1,-21.3,22.8,4.2,-20.9,5.73,2.30,-26.1,25.9
2012-04-09 00:10:00,0.0,1.9019,0.0011,401.15,0.23,78.9,39.7,138.14,28.23,24.61,36.32,0.04,-272.73,-272.74,-51,554,-923,22.6,4.1,-21.2,22.7,4.2,-20.9,5.73,2.31,-26.3,25.7
2012-04-09 00:11:00,0.0,1.9033,0.0011,401.18,0.24,66.6,35.7,138.14,28.21,24.61,36.32,0.04,-272.73,-272.73,-51,553,-923,22.6,4.1,-21.2,22.6,4.2,-20.9,5.73,2.38,-26.4,25.6
2012-04-09 00:12:00,0.0,1.9030,0.0015,401.22,0.22,57.2,42.3,138.15,28.18,24.61,36.32,0.04,-272.74,-272.74,-51,553,-924,22.5,4.1,-21.2,22.6,4.3,-20.8,5.73,2.43,-26.6,25.4
2012-04-09 00:13:00,0.0,1.9017,0.0011,401.30,0.21,49.9,33.5,138.15,28.15,24.61,36.32,0.04,-272.74,-272.74,-51,552,-923,22.5,4.2,-21.0,22.5,4.3,-20.7,5.73,2.44,-26.7,25.6
2012-04-09 00:14:00,0.0,1.9030,0.0011,401.25,0.25,46.7,34.9,138.15,28.13,24.61,36.31,0.04,-272.74,-272.73,-51,552,-923,22.5,4.2,-21.0,22.5,4.3,-20.7,5.73,2.27,-26.6,26.1
2012-04-09 00:15:00,0.0,1.9017,0.0011,401.22,0.20,51.9,34.0,138.15,28.11,24.61,36.32,0.04,-272.74,-272.73,-51,552,-923,22.5,4.2,-21.0,22.5,4.4,-20.6,5.73,2.45,-26.6,26.5
2012-04-09 00:16:00,0.0,1.9012,0.0010,401.14,0.19,61.7,38.5,138.14,28.09,24.61,36.32,0.04,-272.74,-272.74,-51,551,-923,22.5,4.3,-20.7,22.5,4.4,-20.4,5.73,2.27,-26.5,26.7
2012-04-09 00:17:00,0.0,1.9013,0.0010,401.17,0.22,64.5,35.4,138.14,28.08,24.61,36.31,0.04,-272.74,-272.74,-51,552,-923,22.4,4.3,-20.8,22.5,4.4,-20.4,5.73,2.46,-26.4,26.9
2012-04-09 00:18:00,0.0,1.9009,0.0011,401.10,0.24,70.8,37.7,138.13,28.08,24.61,36.32,0.04,-272.73,-272.74,-51,552,-922,22.4,4.3,-20.8,22.5,4.4,-20.5,5.73,2.34,-26.3,27.0
2012-04-09 00:19:00,0.0,1.9015,0.0010,401.17,0.21,82.5,34.0,138.13,28.08,24.61,36.31,0.04,-272.74,-272.74,-51,549,-922,22.4,4.3,-20.7,22.5,4.4,-20.4,5.73,2.30,-26.3,27.1
2012-04-09 00:20:00,0.0,1.9016,0.0011,401.19,0.23,92.6,41.0,138.13,28.08,24.61,36.32,0.04,-272.74,-272.74,-52,552,-921,22.4,4.3,-20.8,22.5,4.4,-20.4,5.73,2.44,-26.2,27.2
2012-04-09 00:21:00,0.0,1.9019,0.0011,401.20,0.22,93.1,40.7,138.13,28.08,24.61,36.32,0.04,-272.73,-272.73,-51,551,-922,22.4,4.3,-20.8,22.6,4.4,-20.5,5.73,2.38,-26.1,27.3
2012-04-09 00:22:00,0.0,1.9010,0.0011,401.25,0.22,101.4,33.8,138.12,28.09,24.61,36.32,0.04,-272.74,-272.73,-50,551,-922,22.4,4.3,-20.7,22.6,4.4,-20.4,5.73,2.28,-26.0,27.3
2012-04-09 00:23:00,0.0,1.9022,0.0011,401.28,0.21,111.8,33.0,138.12,28.09,24.61,36.32,0.04,-272.74,-272.74,-50,552,-923,22.4,4.3,-20.7,22.6,4.4,-20.3,5.73,2.39,-26.0,27.4
2012-04-09 00:24:00,0.0,1.9023,0.0010,401.24,0.21,117.1,37.7,138.12,28.10,24.61,36.32,0.04,-272.72,-272.73,-51,551,-922,22.4,4.3,-20.7,22.6,4.4,-20.3,5.73,2.43,-25.9,27.4
2012-04-09 00:25:00,0.0,1.9023,0.0011,401.26,0.23,123.3,34.8,138.12,28.11,24.61,36.32,0.04,-272.73,-272.74,-50,552,-922,22.5,4.3,-20.7,22.6,4.5,-20.3,5.73,2.31,-25.9,27.4
2012-04-09 00:26:00,0.0,1.9027,0.0010,401.28,0.24,130.9,35.9,138.12,28.12,24.61,36.32,0.04,-272.74,-272.74,-51,552,-922,22.5,4.4,-20.6,22.7,4.5,-20.2,5.73,2.32,-25.8,27.4
2012-04-09 00:27:00,0.0,1.9033,0.0009,401.39,0.20,136.6,40.0,138.12,28.13,24.61,36.32,0.04,-272.73,-272.74,-51,552,-922,22.5,4.4,-20.6,22.7,4.5,-20.1,5.73,2.43,-25.7,27.4
2012-04-09 00:28:00,0.0,1.9040,0.0011,401.34,0.25,138.7,32.4,138.12,28.14,24.61,36.32,0.04,-272.74,-272.73,-50,552,-922,22.5,4.4,-20.5,22.7,4.5,-20.1,5.73,2.38,-25.7,27.4
2012-04-09 00:29:00,0.0,1.9042,0.0010,401.34,0.22,152.1,35.4,138.12,28.15,24.61,36.32,0.04,-272.74,-272.74,-51,552,-923,22.5,4.4,-20.5,22.7,4.5,-20.1,5.73,2.28,-25.6,27.4
2012-04-09 00:30:00,0.0,1.9044,0.0011,401.37,0.19,138.1,45.0,138.11,28.16,24.61,36.32,0.04,-272.74,-272.74,-51,554,-922,22.5,4.4,-20.4,22.7,4.5,-20.0,5.73,2.39,-25.6,27.5
2012-04-09 00:31:00,0.0,1.9043,0.0012,401.46,0.20,148.1,37.4,138.11,28.17,24.61,36.32,0.04,-272.74,-272.74,-50,552,-922,22.6,4.4,-20.3,22.7,4.6,-19.9,5.73,2.43,-25.5,27.6
2012-04-09 00:32:00,0.0,1.9043,0.0011,401.42,0.23,153.5,36.4,138.11,28.18,24.61,36.32,0.04,-272.74,-272.74,-51,552,-922,22.6,4.4,-20.3,22.8,4.6,-19.9,5.73,2.30,-25.5,27.7
2012-04-09 00:33:00,0.0,1.9048,0.0010,401.43,0.23,161.9,38.8,138.11,28.19,24.61,36.33,0.04,-272.74,-272.74,-50,552,-922,22.6,4.4,-20.4,22.8,4.5,-20.0,5.73,2.33,-25.4,27.7
2012-04-09 00:34:00,0.0,1.9046,0.0011,401.49,0.26,170.4,35.0,138.11,28.20,24.61,36.33,0.04,-272.74,-272.74,-50,552,-922,22.7,4.5,-20.2,22.8,4.6,-19.8,5.73,2.43,-25.4,27.7
2012-04-09 00:35:00,0.0,1.9049,0.0009,401.39,0.17,166.6,36.8,138.11,28.21,24.61,36.33,0.04,-272.74,-272.73,-50,552,-922,22.7,4.4,-20.2,22.8,4.6,-19.8,5.73,2.36,-25.3,27.8
2012-04-09 00:36:00,0.0,1.9050,0.0010,401.53,0.20,180.5,33.0,138.11,28.22,24.61,36.33,0.04,-272.74,-272.74,-50,552,-922,22.7,4.4,-20.2,22.9,4.6,-19.8,5.73,2.28,-25.3,27.8
2012-04-09 00:37:00,0.0,1.9056,0.0010,401.47,0.21,173.7,31.7,138.11,28.23,24.61,36.33,0.04,-272.73,-272.74,-50,553,-922,22.7,4.5,-20.2,22.9,4.6,-19.7,5.73,2.39,-25.2,27.8
2012-04-09 00:38:00,0.0,1.9061,0.0010,401.55,0.24,183.1,37.9,138.11,28.24,24.61,36.33,0.04,-272.73,-272.74,-51,553,-922,22.7,4.5,-20.1,22.9,4.6,-19.7,5.73,2.43,-25.2,27.9
2012-04-09 00:39:00,0.0,1.9064,0.0008,401.66,0.24,187.0,34.0,138.11,28.25,24.62,36.33,0.04,-272.73,-272.74,-50,553,-922,22.8,4.5,-20.1,22.9,4.6,-19.7,5.73,2.31,-25.1,27.9
2012-04-09 00:40:00,0.0,1.9064,0.0010,401.64,0.27,197.2,35.1,138.10,28.26,24.61,36.33,0.04,-272.73,-272.74,-50,553,-922,22.8,4.5,-20.0,22.9,4.6,-19.6,5.73,2.32,-25.1,28.0
2012-04-09 00:41:00,0.0,1.9070,0.0012,401.55,0.23,198.9,38.4,138.10,28.27,24.61,36.34,0.04,-272.73,-272.73,-51,553,-922,22.9,4.5,-19.9,23.0,4.7,-19.5,5.73,2.43,-25.0,28.0
2012-04-09 00:42:00,0.0,1.9070,0.0010,401.58,0.25,201.9,42.2,138.10,28.28,24.61,36.33,0.04,-272.73,-272.74,-50,553,-922,22.9,4.5,-20.0,23.0,4.6,-19.5,5.73,2.38,-25.0,28.0
2012-04-09 00:43:00,0.0,1.9070,0.0009,401.61,0.22,196.0,41.4,138.10,28.29,24.61,36.33,0.04,-272.74,-272.74,-50,554,-923,22.9,4.5,-19.8,23.0,4.7,-19.4,5.73,2.27,-25.0,27.5
2012-04-09 00:44:00,0.0,1.9065,0.0010,401.64,0.21,188.1,38.8,138.11,28.30,24.62,36.33,0.04,-272.73,-272.73,-50,554,-923,22.9,4.6,-19.7,23.0,4.8,-19.2,5.73,2.45,-25.1,27.0
2012-04-09 00:45:00,0.0,1.9061,0.0010,401.51,0.25,166.6,49.7,138.12,28.30,24.62,36.33,0.04,-272.73,-272.74,-51,554,-923,22.9,4.7,-19.5,22.9,4.8,-19.1,5.73,2.37,-25.3,26.6
2012-04-09 00:46:00,0.0,1.9064,0.0009,401.51,0.24,156.2,38.4,138.12,28.29,24.61,36.33,0.04,-272.73,-272.74,-51,554,-923,22.8,4.8,-19.3,22.9,4.9,-19.0,5.73,2.28,-25.5,26.2
2012-04-09 00:47:00,0.0,1.9066,0.0010,401.37,0.25,143.8,34.7,138.13,28.28,24.61,36.33,0.04,-272.73,-272.73,-51,554,-923,22.8,4.8,-19.2,22.8,5.0,-18.8,5.73,2.37,-25.6,26.0
2012-04-09 00:48:00,0.0,1.9049,0.0011,401.38,0.28,119.0,42.5,138.13,28.26,24.61,36.33,0.04,-272.73,-272.74,-51,554,-923,22.7,4.9,-19.1,22.8,5.0,-18.8,5.73,2.44,-25.8,25.7
2012-04-09 00:49:00,0.0,1.9041,0.0010,401.34,0.23,97.5,38.4,138.14,28.24,24.61,36.32,0.04,-272.73,-272.74,-51,553,-923,22.7,5.0,-19.0,22.7,5.1,-18.7,5.73,2.43,-25.9,25.7
2012-04-09 00:50:00,0.0,1.9031,0.0009,401.34,0.20,91.0,36.6,138.14,28.22,24.61,36.32,0.04,-272.73,-272.74,-51,553,-923,22.6,5.0,-19.0,22.6,5.1,-18.7,5.73,2.36,-26.1,25.5
2012-04-09 00:51:00,0.0,1.9034,0.0008,401.46,0.23,76.6,44.8,138.15,28.19,24.61,36.31,0.04,-272.74,-272.73,-51,553,-923,22.6,5.0,-19.0,22.6,5.1,-18.7,5.73,2.31,-26.2,25.2
2012-04-09 00:52:00,0.0,1.9030,0.0011,401.46,0.27,75.1,47.1,138.15,28.16,24.61,36.31,0.04,-272.73,-272.73,-51,553,-923,22.5,5.1,-18.9,22.5,5.2,-18.6,5.73,2.31,-26.3,25.6
2012-04-09 00:53:00,0.0,1.9020,0.0009,401.38,0.22,67.5,37.6,138.15,28.14,24.61,36.31,0.04,-272.74,-272.74,-51,552,-923,22.5,5.1,-18.9,22.5,5.2,-18.6,5.73,2.49,-26.3,26.1
2012-04-09 00:54:00,0.0,1.9022,0.0009,401.34,0.25,68.8,37.6,138.14,28.12,24.61,36.31,0.04,-272.74,-272.74,-51,552,-923,22.5,5.1,-18.7,22.5,5.3,-18.4,5.73,2.26,-26.2,26.5
2012-04-09 00:55:00,0.0,1.9024,0.0011,401.17,0.23,83.7,44.2,138.14,28.11,24.61,36.32,0.04,-272.74,-272.73,-51,552,-923,22.5,5.2,-18.7,22.5,5.3,-18.3,5.73,2.46,-26.1,26.7
2012-04-09 00:56:00,0.0,1.9029,0.0011,401.20,0.25,86.8,33.7,138.14,28.10,24.61,36.31,0.04,-272.74,-272.74,-51,552,-923,22.5,5.2,-18.6,22.5,5.4,-18.2,5.73,2.34,-26.0,26.9
2012-04-09 00:57:00,0.0,1.9023,0.0012,401.24,0.21,100.7,37.8,138.13,28.10,24.61,36.31,0.04,-272.74,-272.73,-50,549,-923,22.5,5.2,-18.5,22.6,5.4,-18.1,5.73,2.30,-25.9,27.0
2012-04-09 00:58:00,0.0,1.9045,0.0010,401.27,0.24,108.1,36.1,138.13,28.10,24.61,36.31,0.04,-272.74,-272.74,-51,552,-923,22.5,5.3,-18.4,22.6,5.4,-18.0,5.73,2.44,-25.8,27.1
2012-04-09 00:59:00,0.0,1.9040,0.0010,401.20,0.26,116.0,35.6,138.13,28.10,24.61,36.32,0.04,-272.74,-272.74,-51,552,-922,22.5,5.3,-18.4,22.6,5.5,-17.9,5.73,2.36,-25.8,27.2
2012-04-09 01:00:00,0.0,1.9058,0.0009,401.30,0.27,132.1,41.3,138.12,28.11,24.61,36.32,0.04,-272.74,-272.74,-51,552,-922,22.5,5.3,-18.3,22.6,5.5,-17.8,5.73,2.29,-25.7,27.3
2012-04-09 01:01:00,0.0,1.9062,0.0010,401.29,0.21,114.6,42.8,138.12,28.11,24.61,36.32,0.04,-272.73,-272.74,-51,552,-922,22.5,5.3,-18.3,22.6,5.5,-17.9,5.73,2.41,-25.6,27.4
2012-04-09 01:02:00,0.0,1.9070,0.0010,401.38,0.20,142.7,33.8,138.12,28.12,24.61,36.32,0.04,-272.74,-272.73,-50,551,-922,22.5,5.3,-18.3,22.7,5.5,-17.9,5.73,2.41,-25.5,27.4
2012-04-09 01:03:00,0.0,1.9070,0.0010,401.28,0.23,145.5,34.3,138.12,28.13,24.61,36.32,0.04,-272.73,-272.74,-50,552,-922,22.5,5.3,-18.3,22.7,5.4,-17.9,5.73,2.29,-25.5,27.4
2012-04-09 01:04:00,0.0,1.9070,0.0011,401.33,0.21,154.4,46.2,138.12,28.14,24.61,36.32,0.04,-272.74,-272.74,-51,552,-922,22.5,5.3,-18.4,22.7,5.4,-17.9,5.73,2.34,-25.4,27.5
2012-04-09 01:05:00,0.0,1.9074,0.0009,401.32,0.21,161.1,41.4,138.12,28.15,24.61,36.32,0.04,-272.73,-272.73,-50,552,-922,22.6,5.2,-18.5,22.7,5.4,-18.0,5.73,2.44,-25.3,27.5
2012-04-09 01:06:00,0.0,1.9080,0.0011,401.35,0.17,164.2,37.4,138.12,28.16,24.61,36.33,0.04,-272.74,-272.74,-50,553,-922,22.6,5.2,-18.5,22.7,5.4,-18.1,5.73,2.34,-25.3,27.5
2012-04-09 01:07:00,0.0,1.9088,0.0010,401.43,0.21,163.5,35.1,138.11,28.17,24.62,36.32,0.04,-272.74,-272.74,-52,551,-920,22.6,5.2,-18.5,22.7,5.4,-18.0,5.73,2.29,-25.2,27.5
2012-04-09 01:08:00,0.0,1.9090,0.0008,401.48,0.20,186.5,40.6,138.11,28.18,24.61,36.32,0.04,-272.73,-272.74,-50,550,-922,22.6,5.2,-18.5,22.8,5.4,-18.0,5.73,2.40,-25.2,27.5
2012-04-09 01:09:00,0.0,1.9086,0.0007,401.44,0.23,179.3,42.0,138.11,28.19,24.61,36.33,0.04,-272.74,-272.74,-50,552,-922,22.7,5.1,-18.6,22.8,5.3,-18.1,5.73,2.42,-25.1,27.5
2012-04-09 01:10:00,0.0,1.9082,0.0010,401.42,0.24,189.1,41.2,138.11,28.20,24.61,36.33,0.04,-272.74,-272.74,-51,552,-922,22.7,5.1,-18.7,22.8,5.2,-18.3,5.73,2.30,-25.1,27.6
2012-04-09 01:11:00,0.0,1.9075,0.0010,401.45,0.19,190.6,36.3,138.11,28.21,24.61,36.33,0.04,-272.73,-272.74,-50,552,-922,22.7,5.0,-18.9,22.8,5.1,-18.5,5.73,2.32,-25.0,27.6
2012-04-09 01:12:00,0.0,1.9081,0.0010,401.59,0.23,190.2,34.3,138.11,28.22,24.62,36.32,0.04,-272.73,-272.74,-50,553,-922,22.7,4.8,-19.2,22.9,5.0,-18.8,5.73,2.43,-24.9,27.7
2012-04-09 01:13:00,0.0,1.9081,0.0011,401.57,0.21,195.5,40.0,138.11,28.23,24.61,36.33,0.04,-272.74,-272.74,-51,552,-922,22.7,4.7,-19.6,22.9,4.8,-19.1,5.73,2.39,-24.9,27.8
2012-04-09 01:14:00,0.0,1.9075,0.0010,401.42,0.25,214.1,35.0,138.11,28.24,24.62,36.33,0.04,-272.73,-272.74,-50,553,-922,22.8,4.5,-20.0,22.9,4.7,-19.5,5.73,2.28,-24.8,27.8
2012-04-09 01:15:00,0.0,1.9080,0.0010,401.59,0.24,203.2,38.3,138.11,28.25,24.61,36.33,0.04,-272.73,-272.74,-50,553,-922,22.8,4.4,-20.3,22.9,4.5,-19.9,5.73,2.36,-24.8,27.9
2012-04-09 01:16:00,0.0,1.9072,0.0011,401.52,0.24,213.9,34.4,138.10,28.27,24.62,36.33,0.04,-272.73,-272.74,-51,553,-922,22.8,4.3,-20.5,22.9,4.5,-20.0,5.73,2.43,-24.7,27.9
2012-04-09 01:17:00,0.0,1.9076,0.0009,401.49,0.18,208.7,40.5,138.10,28.28,24.62,36.34,0.04,-272.74,-272.73,-50,553,-922,22.9,4.3,-20.6,23.0,4.4,-20.2,5.73,2.34,-24.7,27.9
2012-04-09 01:18:00,0.0,1.9081,0.0011,401.62,0.20,219.1,37.9,138.10,28.29,24.61,36.33,0.04,-272.73,-272.73,-50,553,-922,22.9,4.2,-20.8,23.0,4.3,-20.3,5.73,2.28,-24.6,28.0
2012-04-09 01:19:00,0.0,1.9073,0.0009,401.52,0.25,226.0,39.9,138.10,28.30,24.61,36.33,0.04,-272.74,-272.74,-51,553,-923,22.9,4.2,-20.8,23.0,4.3,-20.4,5.73,2.44,-24.6,27.5
2012-04-09 01:20:00,0.0,1.9067,0.0010,401.59,0.21,213.6,34.5,138.11,28.30,24.61,36.33,0.04,-272.73,-272.74,-50,554,-923,22.9,4.1,-21.0,23.0,4.2,-20.6,5.73,2.28,-24.7,27.1
2012-04-09 01:21:00,0.0,1.9071,0.0011,401.48,0.23,203.0,35.9,138.11,28.31,24.61,36.33,0.04,-272.74,-272.74,-51,554,-923,22.9,4.1,-21.1,23.0,4.2,-20.6,5.73,2.47,-24.8,26.6
2012-04-09 01:22:00,0.0,1.9069,0.0010,401.45,0.19,195.4,36.2,138.12,28.30,24.62,36.33,0.04,-272.73,-272.74,-51,554,-923,22.9,4.0,-21.3,22.9,4.2,-20.9,5.73,2.36,-25.0,26.3
2012-04-09 01:23:00,0.0,1.9066,0.0011,401.48,0.18,173.9,36.0,138.12,28.29,24.61,36.32,0.04,-272.74,-272.74,-51,554,-923,22.8,3.9,-21.5,22.9,4.1,-21.1,5.73,2.28,-25.1,26.0
2012-04-09 01:24:00,0.0,1.9059,0.0009,401.40,0.25,144.2,33.8,138.13,28.28,24.61,36.32,0.04,-272.74,-272.74,-51,554,-923,22.7,3.9,-21.8,22.8,4.0,-21.4,5.73,2.37,-25.3,25.8
2012-04-09 01:25:00,0.0,1.9049,0.0009,401.43,0.20,142.7,38.8,138.13,28.26,24.61,36.32,0.04,-272.74,-272.74,-51,554,-923,22.7,3.8,-22.0,22.7,3.9,-21.6,5.73,2.45,-25.4,25.6
2012-04-09 01:26:00,0.0,1.9041,0.0010,401.28,0.25,120.7,42.8,138.14,28.24,24.61,36.32,0.04,-272.74,-272.74,-51,553,-923,22.7,3.8,-22.1,22.7,3.9,-21.8,5.73,2.41,-25.6,25.5
2012-04-09 01:27:00,0.0,1.9031,0.0013,401.29,0.24,110.0,43.8,138.14,28.21,24.61,36.32,0.04,-272.74,-272.74,-51,553,-923,22.6,3.8,-22.2,22.6,3.9,-21.8,5.73,2.32,-25.7,25.3
2012-04-09 01:28:00,0.0,1.9031,0.0012,401.37,0.21,84.3,42.1,138.15,28.19,24.61,36.31,0.04,-272.73,-272.73,-51,553,-923,22.6,3.7,-22.3,22.5,3.9,-21.9,5.73,2.28,-25.8,25.4
2012-04-09 01:29:00,0.0,1.9033,0.0009,401.32,0.23,86.1,40.5,138.15,28.17,24.61,36.32,0.04,-272.73,-272.74,-51,553,-923,22.6,3.7,-22.4,22.5,3.8,-22.1,5.73,2.45,-25.7,25.9
2012-04-09 01:30:00,0.0,1.9026,0.0010,401.28,0.20,89.8,39.5,138.14,28.15,24.61,36.31,0.04,-272.74,-272.74,-51,553,-923,22.5,3.7,-22.5,22.5,3.8,-22.2,5.73,2.31,-25.7,26.4
2012-04-09 01:31:00,0.0,1.9031,0.0011,401.17,0.19,98.6,37.1,138.14,28.14,24.61,36.32,0.04,-272.74,-272.74,-51,552,-923,22.5,3.7,-22.5,22.5,3.8,-22.2,5.73,2.45,-25.6,26.6
2012-04-09 01:32:00,0.0,1.9022,0.0011,401.11,0.21,109.5,35.2,138.14,28.13,24.61,36.32,0.04,-272.73,-272.74,-51,552,-922,22.5,3.7,-22.6,22.6,3.8,-22.2,5.73,2.28,-25.5,26.8
2012-04-09 01:33:00,0.0,1.9029,0.0011,401.14,0.21,118.7,31.6,138.13,28.13,24.61,36.32,0.04,-272.74,-272.74,-51,552,-922,22.5,3.6,-22.7,22.6,3.7,-22.4,5.73,2.38,-25.4,27.0
2012-04-09 01:34:00,0.0,1.9042,0.0009,401.26,0.21,125.0,36.8,138.13,28.13,24.61,36.32,0.04,-272.74,-272.74,-51,551,-922,22.5,3.6,-22.8,22.6,3.7,-22.4,5.73,2.43,-25.4,27.1
2012-04-09 01:35:00,0.0,1.9027,0.0012,401.18,0.25,130.0,34.3,138.13,28.13,24.61,36.32,0.04,-272.73,-272.74,-52,551,-923,22.5,3.6,-22.8,22.7,3.7,-22.4,5.73,2.30,-25.3,27.2
2012-04-09 01:36:00,0.0,1.9026,0.0014,401.20,0.19,150.9,36.5,138.12,28.13,24.61,36.32,0.04,-272.74,-272.74,-51,552,-926,22.6,3.6,-22.7,22.7,3.7,-22.3,5.73,2.33,-25.2,27.3
2012-04-09 01:37:00,0.0,1.9055,0.0010,401.35,0.24,162.5,32.2,138.12,28.14,24.61,36.32,0.04,-272.73,-272.74,-51,552,-923,22.5,3.5,-23.0,22.7,3.6,-22.5,5.73,2.43,-25.1,27.4
2012-04-09 01:38:00,0.0,1.9051,0.0009,401.34,0.25,164.6,43.7,138.12,28.14,24.61,36.32,0.04,-272.73,-272.74,-50,552,-922,22.6,3.5,-22.9,22.7,3.6,-22.5,5.73,2.36,-25.1,27.4
2012-04-09 01:39:00,0.0,1.9042,0.0012,401.32,0.19,171.7,32.6,138.12,28.15,24.61,36.32,0.04,-272.73,-272.74,-51,552,-923,22.6,3.6,-22.8,22.7,3.7,-22.4,5.73,2.29,-25.0,27.5
2012-04-09 01:40:00,0.0,1.9059,0.0011,401.30,0.22,177.2,34.9,138.12,28.16,24.61,36.33,0.04,-272.74,-272.74,-51,552,-923,22.7,3.5,-22.9,22.7,3.6,-22.5,5.73,2.39,-24.9,27.5
2012-04-09 01:41:00,0.0,1.9049,0.0009,401.28,0.20,193.0,36.6,138.11,28.17,24.62,36.33,0.04,-272.73,-272.74,-45,550,-921,22.7,3.5,-23.0,22.8,3.6,-22.6,5.73,2.43,-24.9,27.6
2012-04-09 01:42:00,0.0,1.9071,0.0011,401.28,0.21,188.8,40.6,138.11,28.18,24.61,36.33,0.04,-272.74,-272.73,-50,550,-922,22.7,3.5,-23.1,22.8,3.6,-22.7,5.73,2.33,-24.8,27.6
2012-04-09 01:43:00,0.0,1.9064,0.0013,401.50,0.24,206.3,34.9,138.11,28.19,24.61,36.32,0.04,-272.73,-272.74,-51,552,-922,22.7,3.5,-23.1,22.8,3.6,-22.7,5.73,2.30,-24.7,27.6
2012-04-09 01:44:00,0.0,1.9062,0.0013,401.44,0.20,204.7,47.0,138.11,28.21,24.61,36.33,0.04,-272.73,-272.74,-50,552,-922,22.7,3.4,-23.2,22.8,3.5,-22.8,5.73,2.39,-24.7,27.6
2012-04-09 01:45:00,0.0,1.9070,0.0012,401.40,0.23,203.1,37.2,138.11,28.22,24.61,36.33,0.04,-272.73,-272.73,-50,552,-922,22.7,3.4,-23.3,22.9,3.5,-22.8,5.73,2.42,-24.6,27.7
2012-04-09 01:46:00,0.0,1.9079,0.0011,401.42,0.21,216.7,35.8,138.11,28.23,24.61,36.33,0.04,-272.74,-272.74,-51,552,-923,22.8,3.4,-23.1,22.9,3.5,-22.7,5.73,2.31,-24.6,27.7
2012-04-09 01:47:00,0.0,1.9079,0.0010,401.40,0.21,219.7,39.0,138.11,28.24,24.61,36.34,0.04,-272.73,-272.74,-50,552,-922,22.8,3.4,-23.1,22.9,3.5,-22.7,5.73,2.31,-24.5,27.7
2012-04-09 01:48:00,0.0,1.9080,0.0008,401.54,0.22,221.3,32.7,138.11,28.25,24.61,36.33,0.04,-272.74,-272.73,-50,553,-922,22.8,3.5,-23.0,22.9,3.6,-22.6,5.73,2.41,-24.5,27.7
2012-04-09 01:49:00,0.0,1.9065,0.0012,401.62,0.22,225.1,37.9,138.10,28.27,24.61,36.32,0.04,-272.74,-272.74,-51,553,-922,22.9,3.4,-23.0,23.0,3.6,-22.6,5.73,2.40,-24.4,27.7
2012-04-09 01:50:00,0.0,1.9060,0.0012,401.59,0.24,232.6,36.5,138.10,28.28,24.61,36.33,0.04,-272.74,-272.74,-50,553,-922,22.9,3.5,-23.0,23.0,3.6,-22.6,5.73,2.30,-24.4,27.8
2012-04-09 01:51:00,0.0,1.9079,0.0011,401.68,0.19,233.0,39.2,138.10,28.29,24.61,36.33,0.04,-272.74,-272.74,-50,553,-922,22.9,3.5,-22.8,23.0,3.6,-22.4,5.73,2.32,-24.4,27.8
2012-04-09 01:52:00,0.0,1.9089,0.0008,401.59,0.23,233.6,38.3,138.10,28.31,24.61,36.33,0.04,-272.73,-272.74,-51,553,-922,22.9,3.4,-23.2,23.1,3.5,-22.8,5.73,2.42,-24.3,27.9
2012-04-09 01:53:00,0.0,1.9093,0.0008,401.66,0.24,245.3,40.1,138.10,28.32,24.62,36.33,0.04,-272.73,-272.74,-50,553,-922,23.0,3.3,-23.3,23.1,3.5,-22.9,5.73,2.38,-24.3,27.7
2012-04-09 01:54:00,0.0,1.9083,0.0008,401.58,0.26,223.3,38.5,138.10,28.33,24.62,36.34,0.04,-272.73,-272.74,-51,554,-923,23.0,3.3,-23.3,23.1,3.4,-23.0,5.73,2.30,-24.3,27.1
2012-04-09 01:55:00,0.0,1.9080,0.0010,401.53,0.24,227.0,37.4,138.11,28.34,24.62,36.34,0.04,-272.73,-272.74,-50,554,-923,22.9,3.3,-23.3,23.0,3.4,-22.9,5.73,2.37,-24.5,26.8
2012-04-09 01:56:00,0.0,1.9073,0.0011,401.52,0.23,201.9,38.2,138.11,28.33,24.61,36.33,0.04,-272.73,-272.74,-51,554,-923,22.9,3.3,-23.4,23.0,3.4,-23.0,5.73,2.45,-24.7,26.4
2012-04-09 01:57:00,0.0,1.9071,0.0010,401.46,0.23,197.4,43.1,138.12,28.32,24.61,36.33,0.04,-272.73,-272.74,-51,554,-923,22.9,3.3,-23.4,22.9,3.4,-23.0,5.73,2.30,-24.8,26.1
2012-04-09 01:58:00,0.0,1.9068,0.0012,401.49,0.18,168.9,39.9,138.13,28.31,24.62,36.33,0.04,-272.73,-272.74,-51,554,-923,22.9,3.4,-23.3,22.9,3.5,-22.9,5.73,2.30,-25.0,25.9
2012-04-09 01:59:00,0.0,1.9064,0.0009,401.38,0.22,153.7,42.8,138.13,28.30,24.62,36.33,0.04,-272.73,-272.74,-51,554,-923,22.8,3.4,-23.3,22.8,3.5,-22.9,5.73,2.42,-25.1,25.9
2012-04-09 02:00:00,0.0,1.9050,0.0014,401.31,0.19,133.6,42.1,138.14,28.28,24.61,36.32,0.04,-272.74,-272.74,-51,554,-923,22.7,3.4,-23.3,22.8,3.5,-22.9,5.73,2.45,-25.3,25.7
2012-04-09 02:01:00,0.0,1.9042,0.0010,401.28,0.20,117.5,40.3,138.14,28.25,24.61,36.32,0.04,-272.74,-272.74,-51,553,-923,22.7,3.4,-23.2,22.7,3.5,-22.9,5.73,2.35,-25.4,25.4
2012-04-09 02:02:00,0.0,1.9040,0.0011,401.23,0.19,115.6,40.5,138.14,28.23,24.61,36.32,0.04,-272.73,-272.74,-51,553,-923,22.7,3.4,-23.2,22.6,3.6,-22.8,5.73,2.29,-25.5,25.3
2012-04-09 02:03:00,0.0,1.9044,0.0011,401.30,0.22,106.2,34.2,138.15,28.20,24.61,36.31,0.04,-272.74,-272.73,-51,553,-923,22.6,3.5,-23.1,22.6,3.6,-22.8,5.73,2.36,-25.6,25.8
2012-04-09 02:04:00,0.0,1.9050,0.0011,401.26,0.27,104.2,39.3,138.14,28.18,24.61,36.32,0.04,-272.74,-272.74,-51,553,-923,22.6,3.5,-23.1,22.6,3.6,-22.8,5.73,2.44,-25.6,26.3
2012-04-09 02:05:00,0.0,1.9058,0.0009,401.24,0.18,109.3,35.8,138.14,28.17,24.61,36.31,0.04,-272.73,-272.74,-51,553,-922,22.6,3.5,-23.1,22.6,3.6,-22.7,5.73,2.31,-25.5,26.6
2012-04-09 02:06:00,0.0,1.9047,0.0012,401.18,0.24,119.6,42.8,138.14,28.16,24.61,36.32,0.04,-272.74,-272.74,-51,553,-922,22.6,3.5,-23.1,22.7,3.6,-22.7,5.73,2.34,-25.4,26.8
2012-04-09 02:07:00,0.0,1.9033,0.0011,401.12,0.19,131.5,39.7,138.13,28.15,24.61,36.32,0.04,-272.73,-272.74,-51,552,-922,22.6,3.5,-23.0,22.7,3.6,-22.6,5.73,2.45,-25.4,27.0
2012-04-09 02:08:00,0.0,1.9029,0.0010,401.14,0.20,125.6,33.5,138.13,28.15,24.61,36.32,0.04,-272.73,-272.74,-51,552,-922,22.6,3.5,-23.0,22.7,3.6,-22.6,5.73,2.32,-25.3,27.1
2012-04-09 02:09:00,0.0,1.9024,0.0009,401.25,0.20,144.5,39.4,138.13,28.16,24.62,36.32,0.04,-272.73,-272.75,-51,552,-922,22.6,3.5,-22.9,22.7,3.6,-22.5,5.73,2.32,-25.2,27.2
2012-04-09 02:10:00,0.0,1.9018,0.0009,401.18,0.22,147.4,45.1,138.12,28.16,24.62,36.32,0.04,-272.74,-272.74,-52,552,-922,22.6,3.5,-22.9,22.7,3.6,-22.6,5.73,2.44,-25.1,27.3
2012-04-09 02:11:00,0.0,1.9027,0.0009,401.16,0.26,162.4,36.9,138.12,28.17,24.61,36.33,0.04,-272.73,-272.74,-51,553,-922,22.7,3.5,-22.9,22.7,3.6,-22.6,5.73,2.37,-25.1,27.4
2012-04-09 02:12:00,0.0,1.9029,0.0010,401.22,0.22,166.8,38.2,138.12,28.17,24.61,36.32,0.04,-272.73,-272.73,-49,554,-922,22.7,3.5,-22.9,22.8,3.6,-22.5,5.73,2.29,-25.0,27.5
2012-04-09 02:13:00,0.0,1.9039,0.0009,401.25,0.26,170.6,35.6,138.12,28.19,24.61,36.32,0.04,-272.74,-272.74,-50,552,-923,22.7,3.5,-22.8,22.8,3.6,-22.4,5.73,2.37,-25.0,27.5
2012-04-09 02:14:00,0.0,1.9043,0.0009,401.24,0.19,192.7,39.5,138.11,28.20,24.61,36.33,0.04,-272.74,-272.74,-50,551,-922,22.7,3.6,-22.7,22.8,3.7,-22.3,5.73,2.43,-24.9,27.6
2012-04-09 02:15:00,0.0,1.9042,0.0009,401.29,0.22,190.5,31.4,138.11,28.21,24.61,36.33,0.04,-272.74,-272.73,-51,553,-922,22.7,3.6,-22.7,22.8,3.7,-22.3,5.73,2.33,-24.9,27.6
2012-04-09 02:16:00,0.0,1.9049,0.0010,401.33,0.26,191.2,40.5,138.11,28.22,24.61,36.33,0.04,-272.74,-272.74,-51,553,-922,22.8,3.6,-22.6,22.9,3.7,-22.2,5.73,2.30,-24.8,27.7
2012-04-09 02:17:00,0.0,1.9050,0.0010,401.36,0.23,204.7,39.3,138.11,28.23,24.61,36.33,0.04,-272.74,-272.73,-51,552,-922,22.8,3.6,-22.5,22.9,3.7,-22.1,5.73,2.40,-24.8,27.7